This demonstration page uses our WeatherBlox Daily Observations layout. Learn more.

39.29038, -76.61219

Hourly Observations for June 23, 2019

Temp ( °F °C ) Dew Point ( °F °C ) Humidity (%) Winds ( mph kmh ) Pressure ( in mb ) Visibility ( mi km ) Precip ( " mm )
12:54 am 00:54 undefined 74 23.3 51 10.6 45 45 undefined N/A 30.03 1017 N/A 0 0
1:54 am 01:54 undefined 72 22.2 51 10.6 48 48 undefined N/A 30.03 1017 N/A 0 0
2:54 am 02:54 undefined 70 21.1 51 10.6 51 51 undefined N/A 30.06 1018 N/A 0 0
3:54 am 03:54 undefined 69 20.6 50 10 51 51 undefined N/A 30.06 1018 N/A 0 0
4:54 am 04:54 undefined 68 20 49 9.4 51 51 undefined N/A 30.06 1018 N/A 0 0
5:54 am 05:54 undefined 67 19.4 48 8.9 51 51 undefined N/A 30.06 1018 N/A 0 0
6:54 am 06:54 undefined 69 20.6 49 9.4 49 49 undefined N/A 30.06 1018 N/A 0 0
7:54 am 07:54 undefined 72 22.2 50 10 46 46 undefined N/A 30.09 1019 N/A 0 0
8:54 am 08:54 undefined 76 24.4 51 10.6 42 42 undefined N/A 30.09 1019 N/A 0 0
9:54 am 09:54 undefined 78 25.6 49 9.4 36 36 undefined N/A 30.06 1018 N/A 0 0
10:54 am 10:54 undefined 79 26.1 51 10.6 38 38 undefined N/A 30.06 1018 N/A 0 0
11:54 am 11:54 undefined 80 26.7 47 8.3 31 31 undefined N/A 30.03 1017 N/A 0 0
12:54 pm 12:54 undefined 83 28.3 47 8.3 28 28 undefined N/A 30 1016 N/A 0 0
1:54 pm 13:54 undefined 83 28.3 48 8.9 30 30 undefined N/A 29.97 1015 N/A 0 0
2:54 pm 14:54 undefined 85 29.4 51 10.6 31 31 undefined N/A 29.97 1015 N/A 0 0
3:54 pm 15:54 undefined 86 30 52 11.1 31 31 undefined N/A 29.97 1015 N/A 0 0
4:54 pm 16:54 undefined 85 29.4 51 10.6 31 31 undefined N/A 29.94 1014 N/A 0 0
5:54 pm 17:54 undefined 84 28.9 52 11.1 33 33 undefined N/A 29.94 1014 N/A 0 0
6:54 pm 18:54 undefined 83 28.3 49 9.4 31 31 undefined N/A 29.94 1014 N/A 0 0
7:54 pm 19:54 undefined 82 27.8 51 10.6 34 34 undefined N/A 29.91 1013 N/A 0 0
8:54 pm 20:54 undefined 81 27.2 53 11.7 38 38 undefined N/A 29.91 1013 N/A 0 0
9:54 pm 21:54 undefined 79 26.1 53 11.7 41 41 undefined N/A 29.94 1014 N/A 0 0
10:54 pm 22:54 undefined 76 24.4 55 12.8 48 48 undefined N/A 29.91 1013 N/A 0 0
11:54 pm 23:54 undefined 75 23.9 56 13.3 52 52 undefined N/A 29.91 1013 N/A 0 0

Powered by AerisWeather